Weather History for Red Wing, MN

Change the Weather History Date:

Saturday, December 7, 2013

  Actual Average Record
Temperature  
Mean Temperature -1 °F -  
Max Temperature 5 °F 33 °F 42 °F (2003)
Min Temperature -7 °F 19 °F -7 °F (2005)
Degree Days  
Heating Degree Days 66    
Moisture  
Dew Point -9 °F    
Average Humidity 70    
Maximum Humidity 85    
Minimum Humidity 56    
Precipitation  
Precipitation 0.00 in - - ()
Sea Level Pressure  
Sea Level Pressure 30.64 in    
Wind  
Wind Speed 6 mph (WNW)    
Max Wind Speed 10 mph    
Max Gust Speed -    
Visibility 10 miles    
Events      
Averages and records for this station are not official NWS values.
T = Trace of Precipitation, MM = Missing Value Source: NWS Daily Summary

Daily Weather History Graph

Daily Weather History Graph

Search for Another Location

Airport:

Trip Planner

Search our weather history database for the weather conditions in past years. The results will help you decide how hot, cold, wet, or windy it might be!

Date:

Astronomy

Dec. 07, 2013 Rise Set
Actual Time 7:33 AM CST 4:29 PM CST
Civil Twilight 7:00 AM CST 5:03 PM CST
Nautical Twilight 6:23 AM CST 5:39 PM CST
Astronomical Twilight 5:48 AM CST 6:14 PM CST
Moon 11:10 AM CST (12/7) 10:21 PM CST (12/7)
Length of Visible Light 10h 03m
Length of Day
8h 56m
Waxing Crescent, 29% of the Moon is Illuminated
Dec 7
Waxing Crescent
Dec 9
First Quarter
Dec 17
Full
Dec 25
Last Quarter
Jan 1
New

Hourly Weather History & Observations

Time (CST) Temp. Windchill Dew Point Humidity Pressure Visibility Wind Dir Wind Speed Gust Speed Precip Events Conditions
12:21 AM -4.0 °F -17.8 °F -9.4 °F 78% 30.62 in 10.0 mi WNW 6.9 mph - N/A   Clear
12:41 AM -4.0 °F -19.0 °F -9.4 °F 78% 30.62 in 10.0 mi WNW 8.1 mph - N/A   Clear
1:07 AM -4.0 °F -17.8 °F -9.4 °F 78% 30.62 in 10.0 mi WNW 6.9 mph - N/A   Clear
1:14 AM -4.0 °F -17.8 °F -9.4 °F 78% 30.63 in 10.0 mi WNW 6.9 mph - N/A   Clear
1:35 AM -5.8 °F -19.9 °F -11.2 °F 77% 30.63 in 10.0 mi WNW 6.9 mph - N/A   Clear
1:55 AM -5.8 °F -18.4 °F -11.2 °F 77% 30.63 in 10.0 mi WNW 5.8 mph - N/A   Clear
2:14 AM -5.8 °F -19.9 °F -11.2 °F 77% 30.64 in 10.0 mi WNW 6.9 mph - N/A   Clear
2:35 AM -5.8 °F -14.5 °F -11.2 °F 77% 30.64 in 10.0 mi WNW 3.5 mph - N/A   Clear
2:55 AM -5.8 °F -19.9 °F -11.2 °F 77% 30.65 in 10.0 mi WNW 6.9 mph - N/A   Clear
3:14 AM -5.8 °F -16.7 °F -11.2 °F 77% 30.65 in 10.0 mi West 4.6 mph - N/A   Clear
3:35 AM -5.8 °F -19.9 °F -11.2 °F 77% 30.65 in 10.0 mi West 6.9 mph - N/A   Clear
3:55 AM -5.8 °F -21.2 °F -11.2 °F 77% 30.65 in 10.0 mi West 8.1 mph - N/A   Clear
4:14 AM -5.8 °F -22.4 °F -11.2 °F 77% 30.66 in 10.0 mi West 9.2 mph - N/A   Clear
4:35 AM -5.8 °F -21.2 °F -11.2 °F 77% 30.66 in 10.0 mi West 8.1 mph - N/A   Clear
4:55 AM -5.8 °F -18.4 °F -11.2 °F 77% 30.66 in 10.0 mi West 5.8 mph - N/A   Clear
5:14 AM -5.8 °F -21.2 °F -11.2 °F 77% 30.67 in 10.0 mi West 8.1 mph - N/A   Clear
5:35 AM -5.8 °F -21.2 °F -11.2 °F 77% 30.66 in 10.0 mi WNW 8.1 mph - N/A   Clear
5:55 AM -5.8 °F -18.4 °F -11.2 °F 77% 30.67 in 10.0 mi WNW 5.8 mph - N/A   Clear
6:14 AM -5.8 °F -18.4 °F -11.2 °F 77% 30.67 in 10.0 mi West 5.8 mph - N/A   Clear
6:35 AM -5.8 °F -18.4 °F -11.2 °F 77% 30.67 in 10.0 mi West 5.8 mph - N/A   Clear
6:55 AM -5.8 °F -18.4 °F -13.0 °F 71% 30.68 in 10.0 mi West 5.8 mph - N/A   Clear
7:14 AM -7.6 °F -18.8 °F -13.0 °F 77% 30.68 in 10.0 mi West 4.6 mph - N/A   Clear
7:35 AM -7.6 °F -22.1 °F -13.0 °F 77% 30.67 in 10.0 mi WNW 6.9 mph - N/A   Clear
7:55 AM -5.8 °F -19.9 °F -11.2 °F 77% 30.68 in 10.0 mi West 6.9 mph - N/A   Clear
8:14 AM -5.8 °F -19.9 °F -11.2 °F 77% 30.69 in 10.0 mi West 6.9 mph - N/A   Clear
8:35 AM -5.8 °F -21.2 °F -13.0 °F 71% 30.68 in 10.0 mi West 8.1 mph - N/A   Clear
8:55 AM -4.0 °F -17.8 °F -11.2 °F 71% 30.69 in 10.0 mi West 6.9 mph - N/A   Clear
9:15 AM -2.2 °F -16.8 °F -11.2 °F 66% 30.70 in 10.0 mi West 8.1 mph - N/A   Clear
9:35 AM -2.2 °F -18.0 °F -11.2 °F 66% 30.70 in 10.0 mi WNW 9.2 mph - N/A   Clear
9:55 AM -2.2 °F -16.8 °F -11.2 °F 66% 30.71 in 10.0 mi West 8.1 mph - N/A   Clear
10:15 AM -0.4 °F -13.4 °F -11.2 °F 60% 30.71 in 10.0 mi WNW 6.9 mph - N/A   Clear
10:35 AM -0.4 °F -13.4 °F -11.2 °F 60% 30.71 in 10.0 mi WNW 6.9 mph - N/A   Clear
10:55 AM 1.4 °F -13.5 °F -9.4 °F 61% 30.71 in 10.0 mi West 9.2 mph - N/A   Clear
11:15 AM 1.4 °F -13.5 °F -9.4 °F 61% 30.70 in 10.0 mi West 9.2 mph - N/A   Clear
11:35 AM 1.4 °F -13.5 °F -9.4 °F 61% 30.70 in 10.0 mi West 9.2 mph - N/A   Clear
11:55 AM 3.2 °F -11.3 °F -9.4 °F 56% 30.69 in 10.0 mi West 9.2 mph - N/A   Clear
12:15 PM 3.2 °F -9.1 °F -9.4 °F 56% 30.68 in 10.0 mi WNW 6.9 mph - N/A   Clear
12:35 PM 3.2 °F -6.2 °F -9.4 °F 56% 30.67 in 10.0 mi WNW 4.6 mph - N/A   Clear
12:54 PM 5.0 °F -6.9 °F -7.6 °F 56% 30.66 in 10.0 mi West 6.9 mph - N/A   Clear
1:15 PM 5.0 °F -6.9 °F -7.6 °F 56% 30.66 in 10.0 mi WNW 6.9 mph - N/A   Clear
1:35 PM 5.0 °F -8.1 °F -7.6 °F 56% 30.65 in 10.0 mi WNW 8.1 mph - N/A   Clear
1:54 PM 5.0 °F -10.0 °F -7.6 °F 56% 30.65 in 10.0 mi NW 10.4 mph - N/A   Clear
2:15 PM 5.0 °F -6.9 °F -7.6 °F 56% 30.66 in 10.0 mi NW 6.9 mph - N/A   Clear
2:35 PM 5.0 °F -8.1 °F -7.6 °F 56% 30.65 in 10.0 mi WNW 8.1 mph - N/A   Clear
2:54 PM 5.0 °F -6.9 °F -7.6 °F 56% 30.65 in 10.0 mi West 6.9 mph - N/A   Clear
3:15 PM 5.0 °F -4.1 °F -7.6 °F 56% 30.64 in 10.0 mi WNW 4.6 mph - N/A   Clear
3:34 PM 5.0 °F -4.1 °F -7.6 °F 56% 30.64 in 10.0 mi WNW 4.6 mph - N/A   Clear
3:55 PM 3.2 °F - -7.6 °F 61% 30.64 in 10.0 mi Calm Calm - N/A   Clear
4:15 PM 3.2 °F - -7.6 °F 61% 30.63 in 10.0 mi Calm Calm - N/A   Clear
4:35 PM 1.4 °F -6.2 °F -7.6 °F 66% 30.63 in 10.0 mi WNW 3.5 mph - N/A   Clear
4:55 PM 1.4 °F -6.2 °F -7.6 °F 66% 30.63 in 10.0 mi NW 3.5 mph - N/A   Clear
5:15 PM 1.4 °F - -7.6 °F 66% 30.63 in 10.0 mi Calm Calm - N/A   Clear
5:35 PM 1.4 °F - -7.6 °F 66% 30.62 in 10.0 mi Calm Calm - N/A   Clear
5:55 PM 1.4 °F - -7.6 °F 66% 30.61 in 10.0 mi Calm Calm - N/A   Clear
6:15 PM -0.4 °F - -7.6 °F 72% 30.60 in 10.0 mi Calm Calm - N/A   Clear
6:35 PM -0.4 °F - -7.6 °F 72% 30.60 in 10.0 mi Calm Calm - N/A   Clear
6:55 PM -0.4 °F - -7.6 °F 72% 30.59 in 10.0 mi Calm Calm - N/A   Clear
7:14 PM -0.4 °F - -7.6 °F 72% 30.59 in 10.0 mi Calm Calm - N/A   Clear
7:35 PM -0.4 °F - -7.6 °F 72% 30.59 in 10.0 mi Calm Calm - N/A   Clear
7:55 PM -0.4 °F - -5.8 °F 78% 30.59 in 10.0 mi Calm Calm - N/A   Clear
8:14 PM -0.4 °F - -7.6 °F 72% 30.59 in 10.0 mi Calm Calm - N/A   Clear
8:35 PM -2.2 °F - -7.6 °F 78% 30.60 in 10.0 mi Calm Calm - N/A   Clear
8:55 PM -2.2 °F - -7.6 °F 78% 30.59 in 10.0 mi Calm Calm - N/A   Clear
9:14 PM -2.2 °F - -5.8 °F 85% 30.58 in 10.0 mi Calm Calm - N/A   Clear
9:35 PM -0.4 °F - -5.8 °F 78% 30.58 in 10.0 mi Calm Calm - N/A   Clear
9:55 PM -0.4 °F - -5.8 °F 78% 30.58 in 10.0 mi Calm Calm - N/A   Clear
10:15 PM -0.4 °F - -5.8 °F 78% 30.58 in 10.0 mi Calm Calm - N/A   Clear
10:35 PM -0.4 °F - -5.8 °F 78% 30.57 in 10.0 mi Calm Calm - N/A   Clear
10:55 PM -0.4 °F - -5.8 °F 78% 30.58 in 10.0 mi Calm Calm - N/A   Clear
11:15 PM -0.4 °F - -5.8 °F 78% 30.58 in 10.0 mi Calm Calm - N/A   Clear
11:35 PM 1.4 °F - -5.8 °F 72% 30.57 in 10.0 mi Calm Calm - N/A   Clear
11:55 PM 1.4 °F - -5.8 °F 72% 30.57 in 10.0 mi Calm Calm - N/A   Clear